Tracking 29892 objects as of 21-Nov-2024
HD Live streaming from Space Station
objects crossing your sky now

STARLINK-11130

Track STARLINK-11130 now!
10-day predictions
STARLINK-11130 is classified as:


NORAD ID: 59950
Int'l Code: 2024-107F
Perigee: 366.3 km
Apogee: 367.4 km
Inclination: 53.2 °
Period: 91.7 minutes
Semi major axis: 6737 km
RCS: Unknown
Launch date: June 5, 2024
Source: United States (US)
Launch site: AIR FORCE EASTERN TEST RANGE (AFETR)
Your satellite tracking list
Your tracking list is empty




NASA's NSSDC Master Catalog

Two Line Element Set (TLE):
1 59950U 24107F   24325.28700161  .00000859  00000-0  11949-4 0  9993
2 59950  53.1558  70.0455 0000812 104.5346 255.5762 15.69706024 27632
Source of the keplerian elements: AFSPC